Precipitable_Water
0.58 0.55 0.53 0.62 0.59 0.64 0.65 0.53 0.53 0.60 0.57 0.58 0.70 0.76 0.93 0.96 0.98 0.99 1.04 1.11 1.21 1.32 1.43 1.56 1.66 1.65 1.67 1.69 1.70 1.76 1.75 1.87 1.92 1.95 1.99 2.07 2.05 2.00 1.97 1.97 1.95 1.96 1.96 2.00
0.54 0.46 0.60 0.63 0.67 0.57 0.55 0.54 0.55 0.58 0.56 0.57 0.65 0.68 0.79 0.95 0.91 1.00 1.05 1.06 1.14 1.26 1.34 1.47 1.58 1.73 1.70 1.75 1.79 1.80 1.82 1.82 1.87 1.94 1.94 1.88 1.83 1.82 1.91 1.95 1.98 2.02 1.94 1.91
0.45 0.54 0.57 0.64 0.60 0.50 0.55 0.54 0.59 0.51 0.54 0.59 0.70 0.66 0.73 1.03 0.97 1.00 1.10 1.14 1.11 1.22 1.30 1.45 1.58 1.67 1.87 1.94 1.87 1.95 1.94 1.94 1.92 1.95 1.95 1.93 1.97 1.96 1.90 1.89 1.99 2.05 1.90 1.93
0.43 0.52 0.57 0.54 0.53 0.54 0.47 0.64 0.57 0.49 0.48 0.51 0.68 0.47 0.73 0.96 0.98 0.91 1.00 1.10 1.15 1.17 1.38 1.48 1.60 1.57 1.57 2.04 1.98 2.04 2.02 2.03 2.03 2.01 1.97 1.96 1.94 1.92 2.01 1.95 1.85 1.97 2.02 1.93
0.29 0.40 0.46 0.51 0.49 0.54 0.52 0.61 0.55 0.50 0.46 0.45 0.51 0.53 0.69 0.73 0.91 0.86 0.95 1.08 1.16 1.22 1.35 1.50 1.66 1.44 1.69 1.82 1.91 2.04 2.11 2.12 2.15 2.08 2.12 2.01 1.94 1.94 1.92 2.00 1.94 1.86 2.00 2.01
0.24 0.33 0.41 0.49 0.49 0.53 0.58 0.52 0.51 0.44 0.44 0.37 0.56 0.59 0.64 0.65 0.89 0.74 0.94 1.03 1.13 1.24 1.38 1.52 1.65 1.67 1.68 1.82 1.86 1.91 1.96 2.05 2.05 2.03 1.94 2.14 1.98 1.87 1.91 1.80 1.74 1.82 1.80 1.95
0.18 0.21 0.34 0.38 0.35 0.43 0.49 0.44 0.34 0.33 0.36 0.43 0.68 0.70 0.58 0.74 0.67 0.64 0.75 0.99 1.12 1.28 1.38 1.52 1.60 1.68 1.72 1.72 1.80 1.82 1.82 1.88 1.94 1.86 1.84 1.85 2.03 1.94 1.85 1.79 1.72 1.70 1.62 1.70
0.16 0.14 0.22 0.27 0.28 0.33 0.41 0.34 0.29 0.29 0.33 0.54 0.78 0.60 0.58 0.70 0.77 0.71 0.81 1.02 1.11 1.24 1.36 1.46 1.51 1.57 1.62 1.71 1.73 1.75 1.74 1.71 1.75 1.74 1.71 1.75 1.79 1.81 1.79 1.78 1.73 1.69 1.65 1.60
0.14 0.16 0.23 0.26 0.26 0.25 0.26 0.26 0.25 0.27 0.35 0.41 0.59 0.59 0.83 0.81 0.72 0.76 0.83 0.88 1.04 1.17 1.33 1.44 1.44 1.47 1.53 1.63 1.61 1.64 1.64 1.66 1.66 1.68 1.64 1.63 1.66 1.65 1.60 1.70 1.72 1.63 1.57 1.45
0.15 0.15 0.21 0.24 0.27 0.25 0.21 0.29 0.27 0.24 0.25 0.30 0.52 0.40 0.52 0.66 0.74 0.74 0.79 0.90 1.05 1.21 1.31 1.38 1.42 1.47 1.51 1.60 1.64 1.63 1.62 1.60 1.60 1.61 1.61 1.60 1.63 1.59 1.56 1.52 1.44 1.38 1.31 1.27
0.15 0.16 0.20 0.24 0.23 0.20 0.21 0.19 0.25 0.29 0.29 0.28 0.31 0.46 0.76 0.98 0.92 0.70 0.83 0.96 1.05 1.18 1.27 1.31 1.40 1.46 1.49 1.53 1.54 1.51 1.50 1.48 1.47 1.47 1.48 1.45 1.41 1.40 1.37 1.32 1.28 1.20 1.11 0.95
0.16 0.15 0.17 0.23 0.25 0.25 0.20 0.21 0.21 0.20 0.26 0.39 0.41 0.50 0.77 0.79 1.02 0.90 0.81 1.01 1.15 1.23 1.29 1.35 1.42 1.41 1.41 1.40 1.41 1.38 1.36 1.35 1.36 1.38 1.36 1.32 1.30 1.27 1.16 1.02 0.93 0.86 0.81 0.81
0.17 0.14 0.13 0.16 0.21 0.22 0.21 0.24 0.23 0.21 0.30 0.32 0.36 0.42 0.80 0.76 0.88 0.95 0.88 1.00 1.16 1.22 1.29 1.35 1.33 1.35 1.43 1.41 1.34 1.28 1.28 1.27 1.29 1.28 1.25 1.21 1.12 0.97 0.87 0.82 0.81 0.79 0.75 0.75
0.19 0.16 0.14 0.14 0.18 0.21 0.22 0.22 0.24 0.25 0.28 0.33 0.33 0.54 0.71 0.63 0.78 0.94 0.96 1.04 1.16 1.23 1.26 1.26 1.29 1.37 1.42 1.39 1.33 1.26 1.27 1.28 1.23 1.21 1.11 0.96 0.85 0.79 0.78 0.77 0.73 0.71 0.70 0.67
0.17 0.16 0.17 0.16 0.18 0.22 0.21 0.21 0.21 0.19 0.20 0.22 0.27 0.32 0.41 0.60 0.82 0.91 0.99 1.07 1.14 1.20 1.22 1.28 1.29 1.33 1.35 1.34 1.35 1.30 1.29 1.22 1.14 1.02 0.91 0.80 0.77 0.74 0.70 0.67 0.65 0.63 0.63 0.62
0.24 0.17 0.20 0.17 0.18 0.17 0.19 0.20 0.21 0.20 0.20 0.24 0.27 0.30 0.46 0.75 1.05 1.02 0.98 1.03 1.12 1.18 1.25 1.32 1.34 1.35 1.31 1.38 1.36 1.27 1.19 1.10 1.03 0.89 0.83 0.79 0.70 0.68 0.67 0.64 0.60 0.58 0.55 0.55
0.40 0.27 0.21 0.19 0.23 0.21 0.15 0.17 0.18 0.20 0.25 0.27 0.27 0.30 0.45 0.54 0.92 0.92 0.97 1.06 1.16 1.23 1.27 1.29 1.34 1.36 1.37 1.36 1.28 1.18 1.11 1.06 0.95 0.84 0.78 0.69 0.64 0.61 0.58 0.54 0.54 0.52 0.51 0.53
0.49 0.45 0.32 0.24 0.28 0.19 0.18 0.24 0.23 0.20 0.21 0.27 0.28 0.37 0.64 0.72 0.93 1.00 1.14 1.13 1.20 1.29 1.32 1.32 1.37 1.42 1.41 1.30 1.21 1.15 1.08 1.01 0.86 0.76 0.67 0.61 0.59 0.58 0.55 0.54 0.52 0.54 0.57 0.57
0.54 0.49 0.42 0.34 0.31 0.27 0.27 0.28 0.28 0.25 0.23 0.28 0.33 0.40 0.82 0.84 0.97 1.01 1.21 1.27 1.29 1.37 1.38 1.39 1.48 1.44 1.28 1.16 1.14 1.10 1.06 0.92 0.79 0.67 0.59 0.57 0.61 0.60 0.56 0.55 0.57 0.61 0.62 0.64
0.51 0.52 0.45 0.44 0.38 0.29 0.33 0.33 0.40 0.39 0.24 0.34 0.36 0.53 0.79 0.77 0.69 0.90 1.19 1.26 1.35 1.38 1.41 1.43 1.45 1.29 1.18 1.15 1.12 1.06 0.91 0.78 0.68 0.62 0.57 0.59 0.64 0.62 0.60 0.62 0.63 0.67 0.73 0.69
0.44 0.45 0.45 0.37 0.41 0.46 0.46 0.50 0.43 0.31 0.29 0.40 0.49 0.60 0.86 0.70 0.74 1.15 1.19 1.28 1.37 1.39 1.47 1.45 1.32 1.20 1.17 1.13 1.10 0.95 0.81 0.72 0.66 0.64 0.63 0.60 0.61 0.61 0.64 0.66 0.68 0.69 0.68 0.66
0.54 0.37 0.37 0.38 0.37 0.34 0.61 0.63 0.53 0.50 0.51 0.55 0.61 0.65 0.78 0.87 1.01 1.13 1.19 1.24 1.34 1.35 1.41 1.36 1.26 1.20 1.18 1.17 1.05 0.85 0.75 0.69 0.64 0.64 0.63 0.62 0.65 0.73 0.70 0.69 0.69 0.67 0.67 0.72
0.55 0.61 0.43 0.56 0.44 0.70 0.78 0.68 0.74 0.84 0.81 0.86 0.74 0.71 1.03 0.95 1.07 1.12 1.15 1.25 1.27 1.39 1.35 1.33 1.22 1.14 1.16 1.10 0.99 0.82 0.74 0.63 0.62 0.63 0.64 0.67 0.68 0.64 0.63 0.65 0.62 0.70 0.69 0.65
0.59 0.76 0.76 0.58 0.63 0.68 0.69 0.74 0.79 0.89 0.88 0.79 0.78 0.78 0.91 0.97 1.03 1.07 1.20 1.21 1.26 1.36 1.32 1.25 1.17 1.13 1.08 1.02 0.94 0.87 0.67 0.61 0.61 0.61 0.65 0.65 0.64 0.63 0.64 0.68 0.65 0.64 0.63 0.62
0.75 0.80 0.68 0.56 0.62 0.65 0.71 0.88 0.90 0.82 0.79 0.76 0.85 0.93 1.02 1.21 1.18 1.21 1.23 1.21 1.28 1.28 1.29 1.24 1.20 1.15 1.06 0.99 0.90 0.79 0.66 0.65 0.64 0.64 0.66 0.64 0.62 0.64 0.62 0.65 0.60 0.59 0.62 0.50
0.79 0.75 0.67 0.74 0.88 0.82 0.95 1.01 0.97 0.83 0.83 0.85 0.91 0.95 1.16 1.29 1.29 1.25 1.19 1.25 1.29 1.27 1.27 1.24 1.21 1.17 1.05 0.97 0.88 0.76 0.69 0.67 0.65 0.62 0.60 0.61 0.61 0.66 0.66 0.65 0.68 0.68 0.63 0.60
Wind_Speed
17 16 15 15 12 5 5 5 3 1 2 7 5 6 6 5 5 4 3 5 3 3 2 2 2 2 7 6 5 4 4 3 4 4 3 3 3 4 4 6 8 8 9 9
20 20 17 14 7 10 10 8 9 6 6 7 7 6 6 8 8 6 5 5 5 4 3 1 2 3 4 6 7 7 7 6 6 5 5 4 4 5 6 7 7 8 9 10
24 19 19 16 13 13 12 12 7 8 10 13 11 4 11 10 8 7 6 6 7 6 5 3 3 3 6 8 7 8 9 8 8 7 7 7 6 6 7 7 8 8 8 8
25 23 20 21 18 16 15 13 10 12 13 8 10 9 5 12 10 7 7 7 8 7 7 5 5 6 7 7 7 8 10 10 11 10 10 10 9 8 7 7 9 8 7 8
26 24 24 21 20 19 17 8 13 14 14 17 14 9 6 9 12 7 7 9 9 8 8 7 5 5 4 3 5 7 8 9 7 9 11 10 10 10 10 10 10 8 8 8
23 20 25 22 22 20 17 18 14 16 16 15 5 7 8 2 2 2 7 9 9 8 6 5 5 6 4 1 2 2 3 7 9 11 10 12 12 13 13 11 12 9 9 9
24 24 20 20 23 24 22 18 16 16 16 10 7 11 3 5 1 2 3 7 8 8 8 6 3 4 5 4 2 2 2 3 4 6 7 9 12 11 14 12 9 10 10 12
24 24 23 22 24 20 21 20 19 18 16 5 4 11 7 5 2 2 3 5 7 8 8 8 5 4 5 3 3 3 2 3 4 5 6 6 6 7 7 7 9 11 13 15
23 24 20 24 21 24 22 22 22 25 25 14 10 9 19 6 5 3 4 6 6 7 8 8 7 5 5 4 4 4 3 4 4 5 5 4 4 6 7 9 10 11 14 17
25 18 22 20 20 23 24 18 16 19 23 20 20 12 9 13 8 5 5 8 7 7 8 8 7 5 5 5 5 4 5 4 4 4 4 4 5 6 8 10 12 14 17 20
27 20 21 21 23 24 22 24 21 20 19 19 16 12 3 2 4 6 6 7 8 8 8 8 7 5 5 5 4 5 4 4 4 4 4 6 8 9 11 12 14 16 18 20
26 21 22 22 22 23 26 25 25 20 20 18 19 13 18 14 12 6 6 7 8 9 9 8 7 6 5 4 5 4 4 4 4 5 7 9 10 11 13 14 16 17 19 19
24 24 23 24 22 23 21 22 24 25 22 21 18 10 8 6 8 8 7 8 10 10 10 8 8 7 6 5 4 5 5 6 6 7 8 9 11 13 14 15 16 17 18 18
20 25 23 23 23 21 24 25 23 22 21 21 21 16 10 12 13 11 11 11 11 12 11 10 9 8 7 7 6 6 6 6 7 8 9 11 13 14 15 15 16 16 16 16
23 24 24 23 23 19 25 26 26 28 26 25 20 20 19 17 17 15 14 12 14 13 12 11 9 9 9 9 8 8 7 8 8 9 11 13 14 14 14 13 14 14 14 15
22 23 21 25 22 25 21 22 23 26 27 26 25 24 18 6 11 14 15 14 16 15 13 11 10 9 8 7 9 8 8 9 9 11 12 13 13 12 12 12 13 13 13 14
18 20 22 22 22 23 28 28 24 25 25 24 24 22 19 19 16 19 17 16 18 16 15 13 11 10 9 9 8 8 8 9 10 11 13 12 12 12 12 12 12 12 13 14
19 17 18 21 20 25 25 22 24 26 26 25 24 21 14 15 15 16 17 18 18 17 16 14 12 10 9 8 8 8 9 10 11 12 12 12 11 11 11 11 12 13 14 15
21 19 16 18 19 21 22 22 20 23 24 24 23 21 15 15 14 15 17 18 18 17 16 15 12 11 10 9 9 9 10 11 12 12 12 11 11 11 11 12 13 14 15 15
23 21 18 17 17 20 20 21 19 21 24 23 24 21 18 16 17 16 18 18 18 17 16 15 12 11 9 9 8 9 10 11 12 11 10 10 10 10 11 12 13 14 15 15
23 23 22 20 18 17 16 12 21 21 17 20 22 20 19 19 16 18 18 18 18 18 16 14 12 11 10 9 9 10 11 11 11 10 10 10 10 11 12 13 14 15 14 14
23 26 23 22 22 21 10 12 15 11 13 13 13 19 21 19 18 19 19 19 19 17 16 14 12 11 10 10 10 11 11 11 10 10 10 10 11 12 12 13 14 14 14 15
15 17 19 12 18 11 10 13 9 9 10 9 9 12 12 18 18 20 19 19 19 18 16 14 12 10 10 10 11 11 11 10 10 10 10 11 11 12 13 14 14 14 14 15
20 26 22 17 18 19 17 12 14 12 14 14 14 16 16 19 21 21 21 20 20 19 17 14 12 10 10 10 11 11 10 10 10 10 11 11 12 12 13 14 13 13 15 16
19 13 21 24 24 24 20 12 12 14 17 16 15 15 16 18 21 23 22 21 19 19 17 14 12 11 10 10 11 11 11 11 11 11 11 11 11 12 13 13 13 14 15 17
23 23 23 14 10 19 17 15 15 16 16 17 16 16 16 19 21 23 21 19 18 19 16 14 12 11 11 12 12 11 11 11 11 11 11 11 12 13 14 14 15 15 15 16
Wind_Direction
217 225 231 233 234 286 264 281 270 298 274 301 279 268 197 211 213 202 189 172 175 180 168 160 187 176 195 208 208 216 230 232 245 250 247 258 267 301 319 334 342 351 355 342
226 226 232 234 237 240 248 247 251 264 259 285 285 319 226 207 219 215 217 207 204 204 175 197 226 204 209 223 230 239 248 247 253 252 252 256 268 293 310 322 328 336 341 346
228 223 230 244 228 237 242 248 268 276 289 270 295 284 302 254 213 222 227 230 220 221 215 207 254 264 257 226 244 246 252 251 252 256 258 258 267 284 300 307 319 324 330 337
232 231 234 228 233 234 249 248 249 265 279 277 245 280 235 251 222 231 229 226 224 232 229 235 249 330 274 250 254 255 252 251 253 258 263 258 263 278 292 299 312 316 318 325
231 229 235 233 231 234 243 251 266 271 275 282 290 286 216 236 196 222 236 230 228 227 244 232 236 267 264 267 258 266 255 246 250 275 261 258 262 272 285 286 303 301 308 317
234 234 232 232 236 238 243 250 263 258 264 269 286 264 161 263 126 211 225 231 226 218 231 214 241 241 225 222 304 321 253 259 259 271 270 252 275 272 279 280 284 287 298 305
226 234 233 235 235 236 237 241 249 247 246 245 303 284 182 183 174 269 261 215 217 213 202 191 196 201 221 236 245 330 316 275 291 294 283 275 272 283 278 281 279 279 289 298
225 227 226 227 233 232 224 235 240 250 254 270 309 258 221 223 257 238 241 212 208 204 199 199 220 210 212 231 241 299 309 295 304 311 301 293 275 287 297 285 285 286 291 299
229 234 226 226 228 230 233 231 244 252 261 259 235 243 271 201 187 224 212 204 196 201 198 204 211 220 228 241 258 279 290 299 311 317 324 321 312 302 299 296 293 294 297 300
236 251 221 217 230 230 236 241 240 244 254 263 257 248 262 226 206 202 193 182 189 193 196 201 211 227 239 242 261 273 279 285 299 316 319 328 327 321 314 308 305 303 304 304
230 234 234 217 223 231 228 236 242 255 239 252 259 241 209 112 244 189 180 190 200 203 206 207 214 230 241 247 252 270 266 270 289 301 310 311 312 314 314 311 308 307 307 308
225 233 229 226 234 230 238 232 235 241 244 247 263 263 248 221 213 206 200 210 206 206 207 210 212 220 235 244 251 247 256 265 283 290 297 302 306 309 310 310 310 311 311 311
221 227 238 235 227 229 231 242 230 238 243 246 250 251 205 220 214 223 220 216 213 209 208 213 225 231 233 239 242 250 265 275 285 294 301 305 308 309 311 312 313 314 315 315
229 231 230 236 234 229 227 235 238 243 245 240 243 229 221 241 230 228 228 218 217 215 214 219 225 229 233 238 246 256 269 282 288 297 304 306 308 310 312 313 315 318 319 320
226 236 235 241 245 241 240 232 235 239 242 246 250 250 252 242 230 228 222 220 217 211 216 220 226 230 232 240 248 256 269 283 290 296 304 308 309 310 312 314 318 320 322 322
224 235 237 240 239 241 243 241 240 233 240 245 249 254 254 238 213 221 219 219 212 212 216 219 220 225 226 241 250 258 267 280 290 299 307 308 309 310 312 315 318 320 322 323
227 230 237 239 240 240 241 239 240 244 244 238 243 248 250 240 225 230 223 220 216 214 216 216 220 227 236 250 252 257 270 283 293 301 307 307 307 310 312 314 316 319 322 323
236 239 237 239 239 239 244 242 238 244 242 241 245 245 245 233 226 223 221 217 215 214 213 216 222 229 237 244 249 258 274 287 296 301 305 305 305 309 311 311 312 315 319 321
229 235 236 239 237 246 238 240 242 236 239 239 238 239 222 228 219 220 220 215 213 212 214 215 221 229 236 244 254 266 277 288 295 299 301 301 301 305 304 307 309 312 316 318
226 223 235 240 249 243 244 243 234 241 249 239 234 233 222 218 224 225 214 212 210 209 209 212 218 222 234 245 257 270 281 288 293 295 296 297 298 301 303 307 309 312 312 316
220 228 225 230 238 247 252 255 235 225 244 233 229 224 216 223 230 211 209 206 204 203 207 207 214 225 236 246 261 276 284 289 291 290 292 296 298 302 306 308 310 312 313 314
227 215 224 230 235 238 238 243 229 233 235 243 228 235 220 219 232 205 202 200 199 202 202 206 216 229 237 250 267 279 286 288 286 286 289 293 298 301 305 306 309 310 311 308
234 217 226 230 214 242 241 236 243 249 244 245 245 247 216 215 209 202 201 199 199 201 202 210 220 230 243 256 270 280 285 282 280 282 287 292 297 301 303 305 307 304 307 313
235 231 244 227 234 227 260 256 253 259 243 247 260 248 225 213 208 204 199 199 201 202 205 212 219 234 250 262 272 281 282 279 277 280 285 291 296 300 302 303 304 307 310 314
244 248 252 240 240 247 250 253 249 253 251 247 247 232 221 207 201 197 197 199 203 204 209 217 229 243 254 264 272 280 278 275 277 280 285 290 296 299 305 305 306 308 311 316
241 243 234 250 239 243 248 250 256 257 251 244 232 218 211 200 193 192 196 199 207 206 212 222 233 249 258 267 273 277 276 275 278 281 285 290 296 302 304 303 301 299 307 314